AJ5TT Weather Reports


Display with metric or nautical units.
time (UTC)temp
F
wind
direction
speed
MPH
gust
MPH
rain 1hr
in
rain 24hr
in
rain mn
in
humidity
%
barometer
mb
20220520070012 78 131 0.0 0.0 0.00 0.00 0.00 90 1005.7
20220520064509 78 153 0.0 0.0 0.00 0.00 0.00 90 1005.9
20220520063012 78 171 0.0 0.0 0.00 0.00 0.00 89 1006.1
20220520061506 78 119 0.0 0.0 0.00 0.00 0.00 89 1006.2
20220520060005 78 115 0.0 0.0 0.00 0.00 0.00 89 1006.2
20220520054503 78 115 0.0 0.0 0.00 0.00 0.00 88 1006.4
20220520053001 78 107 0.0 0.0 0.00 0.00 0.00 88 1006.5
20220520051600 78 119 0.0 0.0 0.00 0.00 0.00 88 1006.6
20220520050058 79 155 0.0 0.0 0.00 0.00 0.00 87 1006.6
20220520044607 79 106 1.0 0.0 0.00 0.00 0.00 87 1006.8
20220520043101 79 128 1.0 0.0 0.00 0.00 0.00 87 1006.9
20220520041601 79 179 1.0 0.0 0.00 0.00 0.00 86 1007.1
20220520040056 79 139 0.0 0.0 0.00 0.00 0.00 86 1007.3
20220520034555 79 154 1.0 0.0 0.00 0.00 0.00 86 1007.1
20220520033058 79 141 0.0 0.0 0.00 0.00 0.00 86 1007.1
20220520031554 79 134 0.0 0.0 0.00 0.00 0.00 85 1006.9
20220520030054 79 113 0.0 0.0 0.00 0.00 0.00 85 1007.1
20220520024556 79 130 0.0 0.0 0.00 0.00 0.00 85 1006.7
20220520023103 79 137 1.0 0.0 0.00 0.00 0.00 84 1006.5
20220520021603 80 203 0.0 0.0 0.00 0.00 0.00 84 1006.6
20220520020055 80 116 1.0 0.0 0.00 0.00 0.00 83 1006.4
20220520014608 80 132 1.0 0.0 0.00 0.00 0.00 82 1006.3
20220520013051 81 161 2.0 0.0 0.00 0.00 0.00 81 1006.1
20220520011555 81 114 2.0 0.0 0.00 0.00 0.00 80 1006.2
20220520010054 82 156 2.0 0.0 0.00 0.00 0.00 78 1006.3
20220520004556 82 92 2.0 0.0 0.00 0.00 0.00 77 1006.2
20220520003054 83 138 3.0 0.0 0.00 0.00 0.00 76 1006.2
20220520001626 84 187 3.0 0.0 0.00 0.00 0.00 75 1006.1
20220520000048 84 150 2.0 0.0 0.00 0.00 0.00 73 1006.0
20220519234547 85 173 3.0 0.0 0.00 0.00 0.00 71 1006.2
20220519233046 86 84 4.0 0.0 0.00 0.00 0.00 71 1006.3
20220519231545 86 59 3.0 0.0 0.00 0.00 0.00 69 1006.3
20220519230050 86 205 4.0 0.0 0.00 0.00 0.00 69 1006.3
20220519224547 86 153 4.0 0.0 0.00 0.00 0.00 68 1006.4
20220519223042 86 161 3.0 0.0 0.00 0.00 0.00 68 1006.8
20220519221549 87 123 4.0 0.0 0.00 0.00 0.00 66 1006.8
20220519220040 88 149 4.0 0.0 0.00 0.00 0.00 65 1006.8
20220519214542 88 191 4.0 0.0 0.00 0.00 0.00 65 1007.0
20220519213038 88 169 4.0 0.0 0.00 0.00 0.00 64 1007.2
20220519211538 89 178 4.0 0.0 0.00 0.00 0.00 65 1007.3
20220519210050 89 194 4.0 0.0 0.00 0.00 0.00 63 1007.5
20220519204533 90 76 3.0 0.0 0.00 0.00 0.00 62 1007.7
20220519203033 90 180 3.0 0.0 0.00 0.00 0.00 61 1007.8
20220519201532 90 68 4.0 0.0 0.00 0.00 0.00 63 1007.9
20220519200033 90 226 4.0 0.0 0.00 0.00 0.00 62 1008.1
20220519194530 90 153 5.0 0.0 0.00 0.00 0.00 61 1008.1
20220519193029 90 113 3.0 0.0 0.00 0.00 0.00 63 1008.2
20220519191526 91 150 4.0 0.0 0.00 0.00 0.00 63 1008.6
20220519190025 91 172 3.0 0.0 0.00 0.00 0.00 65 1008.7
20220519184528 90 162 3.0 0.0 0.00 0.00 0.00 63 1009.0
20220519183021 91 98 3.0 0.0 0.00 0.00 0.00 64 1009.3
20220519181529 90 192 3.0 0.0 0.00 0.00 0.00 63 1009.4
20220519180019 91 87 3.0 0.0 0.00 0.00 0.00 63 1009.7
20220519174514 90 195 4.0 0.0 0.00 0.00 0.00 64 1010.0
20220519173015 89 128 4.0 0.0 0.00 0.00 0.00 65 1010.1
20220519171518 89 119 4.0 0.0 0.00 0.00 0.00 65 1010.3
20220519170021 89 167 4.0 0.0 0.00 0.00 0.00 65 1010.6
20220519164513 89 115 3.0 0.0 0.00 0.00 0.00 67 1010.8
20220519163018 90 138 2.0 0.0 0.00 0.00 0.00 64 1010.8
20220519161510 89 144 4.0 0.0 0.00 0.00 0.00 64 1010.7
20220519160006 88 146 5.0 0.0 0.00 0.00 0.00 65 1010.6
20220519154501 88 114 5.0 0.0 0.00 0.00 0.00 68 1010.5
20220519153100 88 176 4.0 0.0 0.00 0.00 0.00 68 1010.8
20220519151603 87 113 4.0 0.0 0.00 0.00 0.00 70 1011.0
20220519150053 86 184 4.0 0.0 0.00 0.00 0.00 70 1010.9
20220519144553 86 110 3.0 0.0 0.00 0.00 0.00 71 1011.0
20220519143110 85 168 3.0 0.0 0.00 0.00 0.00 72 1011.1
20220519141555 84 55 4.0 0.0 0.00 0.00 0.00 75 1011.2
20220519140042 84 123 4.0 0.0 0.00 0.00 0.00 76 1011.2
20220519134544 83 79 4.0 0.0 0.00 0.00 0.00 77 1011.1
20220519133044 83 157 2.0 0.0 0.00 0.00 0.00 79 1011.0
20220519131536 82 128 2.0 0.0 0.00 0.00 0.00 82 1011.1
20220519130035 81 156 1.0 0.0 0.00 0.00 0.00 84 1011.0
20220519124524 79 121 2.0 0.0 0.00 0.00 0.00 86 1010.7
20220519123020 78 175 1.0 0.0 0.00 0.00 0.00 87 1010.8
20220519121520 77 161 0.0 0.0 0.00 0.00 0.00 88 1010.7
20220519120022 77 205 0.0 0.0 0.00 0.00 0.00 88 1010.5
20220519114519 77 157 1.0 0.0 0.00 0.00 0.00 88 1010.2
20220519113041 77 178 2.0 0.0 0.00 0.00 0.00 88 1010.1
20220519111523 77 140 2.0 0.0 0.00 0.00 0.00 88 1009.9
20220519110012 77 179 1.0 0.0 0.00 0.00 0.00 89 1009.9
20220519104510 77 130 1.0 0.0 0.00 0.00 0.00 89 1009.9
20220519103025 77 115 1.0 0.0 0.00 0.00 0.00 89 1009.8
20220519101508 77 178 1.0 0.0 0.00 0.00 0.00 89 1009.8
20220519100008 77 140 1.0 0.0 0.00 0.00 0.00 89 1009.9
20220519094509 77 174 1.0 0.0 0.00 0.00 0.00 88 1010.0
20220519093006 77 178 2.0 0.0 0.00 0.00 0.00 88 1010.0
20220519091505 77 168 1.0 0.0 0.00 0.00 0.00 89 1010.1
20220519090003 77 148 0.0 0.0 0.00 0.00 0.00 89 1010.2
20220519084502 77 145 1.0 0.0 0.00 0.00 0.00 88 1010.5
20220519083003 77 195 1.0 0.0 0.00 0.00 0.00 89 1010.4
20220519081501 77 158 0.0 0.0 0.00 0.00 0.00 89 1010.3
20220519080111 78 159 1.0 0.0 0.00 0.00 0.00 89 1010.4
20220519074606 78 177 1.0 0.0 0.00 0.00 0.00 88 1010.5
20220519073058 78 164 1.0 0.0 0.00 0.00 0.00 88 1010.7
20220519071554 78 163 2.0 0.0 0.00 0.00 0.00 88 1010.9